Weather in Kandabulak

Russia / Samara Oblast     53°58′16″N   50°44′02″E
temp.,
°C
wind,
m/s
gust,
m/s
humid.,
%
clouds,
%
prec.,
mm/h
press.,
hPa
HPBL,
m
31 july, sat
sat3101:00+20sse346899 0.0 100765
04:00+19sse368642 1.4 1006132
07:00+20ssw388330 0.1 1006268
10:00+25sw6859100 0.1 1006864
13:00+29wsw794420 0.0 10051853
16:00+28w694897 0.0 10051224
19:00+27wnw6948100 0.0 10061202
22:00+21w22728 0.1 100920
1 august, sun
sun101:00+19w37820 0.1 1010137
04:00+17w38860 0.1 1011127
07:00+20w38670 0.0 1012239
10:00+27w583745 0.0 10131600
13:00+29w68318 0.0 10122739
16:00+31w78275 0.0 10122979
19:00+28wnw473472 0.0 1013440
22:00+22n115314 0.0 101411
2 august, mon
mon201:00+20s11595 0.0 101411
04:00+19ssw116119 0.0 101511
07:00+22ssw125311 0.0 101599
10:00+29wsw34385 0.0 1015976
13:00+33wsw34231 0.0 10142463
16:00+34wsw34181 0.0 10133193
19:00+31wnw22240 0.0 101236
22:00+24ene12370 0.0 101311
3 august, tue
tue301:00+22sse22421 0.0 101213
04:00+21se335542 0.0 101226
07:00+24se27497 0.0 1012195
10:00+32sse673029 0.0 1011626
13:00+37ssw671814 0.0 10093270
16:00+37wsw791531 0.0 10083953
19:00+30wsw815285 0.0 1009522
22:00+26e223441 0.1 100920
4 august, wed
wed401:00+23ssw1244100 0.0 100930
04:00+21nne2352100 0.0 100931
07:00+23ne245440 0.0 1009140
10:00+28wnw4441100 0.0 1010767
13:00+30w5534100 0.0 10101313
16:00+28wnw6543100 0.0 10101157
19:00+26nw6849100 0.1 1011707
22:00+19nnw41170100 0.7 1013286